Retour au catalogue

STARLINK-36747

ActifCommunicationsSSO
NORAD 67730·PAYLOAD·🇺🇸 United States

Lancé Feb 11, 2026 depuis Vandenberg Space Force Base

Loading…

Prochains Passages (prochaines 24 heures)

TLE

FraisSource: CelesTrak SupGP

Époque: Sep 14, 2026, 21:25 UTC

1 67730C 26026K   26257.89284722 -.00011296  00000+0 -35072-3 0  2570
2 67730  97.2844 309.7836 0001076  93.2068 129.2564 15.33439613    15

Suivez STARLINK-36747 en temps réel avec AllMySat

Download on the App Store